Location: Noordwijk
(52.2400°N, 4.4500°E)
Time: 21:25:31
(UTC+00:00)

CAS-4B - Pass Details

Date: 09 December 2022
Orbit: 515 x 531 km, 43.0° (Epoch: 04 February)

Event Time Altitude Azimuth Distance (km) Brightness Sun altitude
Exits shadow 04:13:49 12° 147° (SSE) 1,618 ? -30.1°
Drops below altitude 10° 04:15:04 10° 129° (SE) 1,775 ? -29.9°
Sets 04:18:23 0° 101° (E) 2,672 ? -29.4°
